Starlink 30358

operational
NORAD ID: 57879 Int'l Des: 2023-144 Owner: SPXS Country: US Constellation: starlink
LEOCIRCULAR

Über Starlink 30358

Beschreibung wird geladen...

Live-Position

3D-Globus wird geladen...

Nächste Überflüge

Höhenverlauf

Altitude vs Time

uPlot chart will show altitude changes over time

Zweizeiliger Elementsatz

1 57879U 23144R 26035.46837932 -.00013137 00000-0 -95783-3 0 9990
2 57879 43.0013 107.9591 0001967 275.5606 84.5012 15.02588954132615
Epoch: 4. Feb. 2026 • Age: 7 hours

Aktueller Status

Höhe 559.5 km
Geschwindigkeit 7.59 km/s
Subsatellitenpunkt 24.99°N, 94.51°E
Startdatum 16. Sept. 2023
Alter 2.3 years
Typ internet

Technische Details

Klassifizierung Payload
Masse 730.00 kg
Trockenmasse 700.00 kg
Gesamtmasse 730.00 kg
Länge 0.30 m
Durchmesser 4.10 m
Spannweite 29.00 m
Form Box + pan
Hersteller SPXS
Bus-Typ Starlink V2M
Phasenstatus In Orbit
Besitzer/Staat SPXS/US

Große Konstellationen

Loading constellations...